SCP
0 0 0 0 0 0 0 0 0 0 0 0 0 0 0 0 0 0 0 0 0 0 0 0 0 0 0 0 0 0 0 0 0 0 0 0 0 0 0 0 0 0 0
0 0 0 0 0 0 0 0 0 0 0 0 0 0 0 0 0 0 0 0 0 0 0 0 0 0 0 0 0 0 0 0 0 0 0 0 0 0 0 0 0 0 0
0 0 0 0 0 0 0 0 0 0 0 0 0 0 0 0 0 0 0 0 0 0 0 0 0 0 0 0 0 0 0 0 0 0 0 0 0 0 0 0 0 0 0
0 0 0 0 0 0 0 0 0 0 0 0 0 0 0 0 0 0 0 0 0 0 0 0 0 0 0 0 0 0 0 0 0 0 0 0 0 0 0 0 0 0 0
0 0 0 0 0 0 0 0 0 0 0 0 0 0 0 0 0 0 0 0 0 0 0 0 0 0 0 0 0 0 0 0 0 0 0 0 0 0 0 0 0 0 0
0 0 0 0 0 0 0 0 0 0 0 0 0 0 0 0 0 0 0 0 0 0 0 0 0 0 0 0 0 0 0 0 0 0 0 0 0 0 0 0 0 0 0
0 0 0 0 0 0 0 0 0 0 0 0 0 0 0 0 0 0 0 0 0 0 0 0 0 0 0 0 0 0 0 0 0 0 0 0 0 0 0 0 0 0 0
0 0 0 0 0 0 0 0 0 0 0 0 0 0 0 0 0 0 0 0 0 0 0 0 0 0 0 0 0 0 0 0 0 0 0 0 0 0 0 0 0 0 0
0 0 0 0 0 0 0 0 0 0 0 0 0 0 0 0 0 0 0 0 0 0 0 0 0 0 0 0 0 0 0 0 0 0 0 0 0 0 0 0 0 0 0
0 0 0 0 0 0 0 0 0 0 0 0 0 0 0 0 0 0 0 0 0 0 0 0 0 0 0 0 0 0 0 0 0 0 0 0 0 0 0 0 0 0 0
0 0 0 0 0 0 0 0 0 0 0 0 0 0 0 0 0 0 0 0 0 0 0 0 0 0 0 0 0 0 0 0 0 0 0 0 0 0 0 0 0 0 0
0 0 0 0 0 0 0 0 0 0 0 0 0 0 0 0 0 0 0 0 0 0 0 0 0 0 0 0 0 0 0 0 0 0 0 0 0 0 0 0 0 0 0
0 0 0 0 0 0 0 0 0 0 0 0 0 0 0 0 0 0 0 0 0 0 0 0 0 0 0 0 0 0 0 0 0 0 0 0 0 0 0 0 0 0 0
0 0 0 0 0 0 0 0 0 0 0 0 0 0 0 0 0 0 0 0 0 0 0 0 0 0 0 0 0 0 0 0 0 0 0 0 0 0 0 0 0 0 0
0 0 0 0 0 0 0 0 0 0 0 0 0 0 0 0 0 0 0 0 0 0 0 0 0 0 0 0 0 0 0 0 0 0 0 0 0 0 0 0 0 0 0
0 0 0 0 0 0 0 0 0 0 0 0 0 0 0 0 0 0 0 0 0 0 0 0 0 0 0 0 0 0 0 0 0 0 0 0 0 0 0 0 0 0 0
0 0 0 0 0 0 0 0 0 0 0 0 0 0 0 0 0 0 0 0 0 0 0 0 0 0 0 0 0 0 0 0 0 0 0 0 0 0 0 0 0 0 0
0 0 0 0 0 0 0 0 0 0 0 0 0 0 0 0 0 0 0 0 0 0 0 0 0 0 0 0 0 0 0 0 0 0 0 0 0 0 0 0 0 0 0
0 0 0 0 0 0 0 0 0 0 0 0 0 0 0 0 0 0 0 0 0 0 0 0 0 0 0 0 0 0 0 0 0 0 0 0 0 0 0 0 0 0 0
0 0 0 0 0 0 0 0 0 0 0 0 0 0 0 0 0 0 0 0 0 0 0 0 0 0 0 0 0 0 0 0 0 0 0 0 0 0 0 0 0 0 0
0 0 0 0 0 0 0 0 0 0 0 0 0 0 0 0 0 0 0 0 0 0 0 0 0 0 0 0 0 0 0 0 0 0 0 0 0 0 0 0 0 0 0
0 0 0 0 0 0 0 0 0 0 0 0 0 0 0 0 0 0 0 0 0 0 0 0 0 0 0 0 0 0 0 0 0 0 0 0 0 0 0 0 0 0 0
0 0 0 0 0 0 0 0 0 0 0 0 0 0 0 0 0 0 0 0 0 0 0 0 0 0 0 0 0 0 0 0 0 0 0 0 0 0 0 0 0 0 0
0 0 0 0 0 0 0 0 0 0 0 0 0 0 0 0 0 0 0 0 0 0 0 0 0 0 0 0 0 0 0 0 0 0 0 0 0 0 0 0 0 0 0
0 0 0 0 0 0 0 0 0 0 0 0 0 0 0 0 0 0 0 0 0 0 0 0 0 0 0 0 0 0 0 0 0 0 0 0 0 0 0 0 0 0 0
0 0 0 0 0 0 0 0 0 0 0 0 0 0 0 0 0 0 0 0 0 0 0 0 0 0 0 0 0 0 0 0 0 0 0 0 0 0 0 0 0 0 0
Wind_Speed
6 8 16 17 16 14 13 12 12 11 11 11 11 12 12 12 12 11 11 11 11 12 12 12 13 13 14 14 13 13 14 14 15 15 15 14 14 14 14 13 13 9 15
10 12 18 18 16 15 14 13 12 12 11 11 11 11 11 11 11 11 11 11 11 11 11 11 12 12 12 12 12 12 12 13 13 14 14 13 13 14 14 14 13 9 14
13 12 16 18 17 15 14 13 12 12 12 11 11 11 10 10 10 10 10 10 10 10 10 11 11 11 11 11 10 10 11 12 12 13 13 8 8 12 13 13 13 13 13
14 11 12 18 17 16 15 14 13 12 11 11 10 10 10 10 10 10 9 9 9 9 9 9 9 10 9 9 9 9 10 11 12 12 7 6 6 10 12 12 12 12 12
11 10 13 19 18 17 15 14 14 13 11 10 10 9 9 9 9 9 8 8 8 8 8 8 8 8 8 8 8 8 9 10 11 9 6 6 5 8 10 10 10 10 10
10 9 13 20 19 17 16 15 14 13 11 10 9 9 9 9 8 8 7 7 6 6 6 6 6 6 6 6 6 7 8 10 9 5 5 5 5 6 8 8 8 8 8
10 9 12 19 19 18 16 15 14 13 12 10 10 9 9 8 7 7 6 5 5 5 4 4 4 5 4 4 5 5 6 7 5 4 4 4 5 6 5 6 6 6 6
12 10 11 19 18 17 16 15 14 13 12 11 10 10 8 8 7 7 5 4 4 3 2 2 2 3 3 3 3 4 5 5 4 4 3 3 4 4 4 4 4 4 5
10 10 8 10 13 16 16 15 15 13 12 11 10 9 8 7 7 7 6 5 3 2 1 0 1 1 2 3 3 3 4 5 3 2 3 2 5 5 4 4 4 4 4
8 8 8 7 8 8 9 13 13 13 12 11 10 8 8 8 7 7 6 5 5 4 3 3 3 3 4 4 5 5 5 4 2 3 2 4 8 8 8 7 7 7 7
7 7 7 7 7 7 6 9 10 11 10 9 8 8 7 3 3 4 5 7 7 6 5 5 5 6 6 6 7 7 5 1 2 3 3 8 11 11 11 11 10 10 10
9 8 7 8 7 6 5 5 4 4 5 5 4 4 3 3 3 4 6 9 8 8 7 7 8 7 5 2 5 7 2 3 3 3 4 11 13 14 14 14 13 13 13
8 9 8 8 7 7 4 4 3 2 3 3 4 4 3 3 2 2 2 3 4 5 3 5 5 3 2 3 3 3 4 4 3 4 6 13 15 16 16 16 16 16 16
7 8 8 8 7 7 5 4 4 3 3 3 4 5 3 2 2 2 2 3 2 2 3 3 3 4 5 5 5 6 6 4 4 4 6 15 17 18 19 19 19 18 18
6 7 8 8 8 6 5 4 4 3 3 4 3 4 4 3 3 3 3 3 3 3 3 3 4 5 5 6 5 6 7 7 7 6 6 15 18 20 21 21 21 21 20
5 6 6 7 7 6 5 4 3 3 3 2 2 3 4 4 3 3 3 3 3 4 4 4 5 5 5 5 6 6 7 7 7 7 6 10 18 21 22 23 23 23 23
4 5 6 7 6 6 5 4 3 3 3 2 2 2 3 3 3 3 3 3 4 4 4 3 4 4 4 5 6 7 6 6 7 7 7 6 8 17 22 24 25 25 25
5 5 5 6 6 6 5 4 3 2 2 2 1 1 2 2 3 3 2 3 3 3 3 3 3 3 4 4 5 5 5 5 7 8 7 7 6 7 14 23 25 25 25
5 6 5 5 6 5 5 3 3 2 2 1 1 1 1 2 2 2 2 3 3 2 2 3 3 3 4 5 5 6 5 6 7 8 8 9 8 8 7 15 23 25 25
5 6 6 6 5 5 4 3 3 3 2 1 1 0 1 1 1 1 2 3 3 2 3 3 4 3 4 4 6 6 6 6 6 7 9 8 7 8 8 8 9 13 22
5 6 5 5 4 4 3 2 2 1 1 1 1 1 1 2 2 2 2 3 2 3 4 4 3 4 4 2 3 5 5 7 7 7 6 6 7 8 7 7 6 6 8
4 4 4 5 4 4 3 2 2 1 0 0 1 2 2 2 3 2 3 3 3 3 4 4 3 3 3 2 2 4 5 5 4 5 4 5 7 6 6 7 6 6 6
4 3 4 4 4 4 4 3 3 3 2 2 2 2 3 3 3 3 3 3 3 3 3 4 4 4 4 3 3 3 4 5 5 4 5 5 5 5 5 5 6 7 7
3 3 4 4 4 4 4 3 3 2 0 1 1 2 4 3 4 4 4 3 3 3 4 4 4 3 4 4 3 4 6 5 6 6 3 4 5 6 7 7 7 7 8
4 4 4 4 3 3 3 4 3 2 1 1 1 3 3 3 4 4 4 3 4 3 4 5 5 5 4 5 4 4 5 5 6 8 10 5 5 5 6 7 7 7 8
4 3 3 4 3 2 3 3 3 2 1 1 2 3 3 3 3 4 4 4 4 4 5 6 6 6 6 6 6 5 5 5 5 6 10 9 8 6 7 6 7 7 8
Wind_Direction
188 181 173 159 155 152 148 140 131 126 121 114 109 105 100 95 91 87 82 79 74 68 65 66 66 63 63 63 62 60 57 54 53 50 49 54 60 61 60 57 52 42 51
163 171 169 161 158 156 151 143 135 129 127 119 114 109 105 99 93 88 84 80 75 69 65 67 67 65 64 63 61 59 57 55 55 51 43 40 52 60 58 57 57 55 54
152 166 166 163 160 157 153 147 142 137 130 123 117 112 109 104 98 93 86 82 78 72 67 66 66 66 63 62 62 58 53 51 55 50 39 19 29 58 58 56 55 55 55
155 162 161 163 161 158 155 152 148 141 135 130 124 118 114 110 104 95 89 84 80 76 73 70 69 67 65 63 61 56 49 46 52 48 30 17 14 53 55 53 52 52 52
156 159 163 164 162 160 158 155 150 145 142 138 134 129 124 117 108 99 93 88 83 80 76 73 71 69 67 63 59 53 47 49 52 44 27 16 6 46 52 51 48 48 48
156 158 166 165 164 163 161 158 155 151 149 146 143 140 134 124 115 107 101 97 92 86 80 74 69 67 65 61 55 48 44 49 46 33 26 11 358 36 46 47 44 43 42
158 163 167 166 166 166 164 161 160 157 155 156 154 149 143 137 129 123 119 114 107 96 88 78 68 59 56 51 43 37 33 39 47 30 19 3 350 20 32 33 31 30 30
160 164 167 169 168 168 167 165 163 163 163 163 162 159 156 152 148 144 141 137 132 120 99 82 62 47 32 24 19 15 12 17 35 18 356 342 331 344 1 6 2 3 7
156 160 166 167 167 170 170 169 168 169 169 170 172 169 168 167 167 164 165 166 167 171 177 212 326 325 328 333 334 335 341 350 27 347 324 313 301 304 309 311 315 316 320
150 159 161 159 160 165 168 170 171 174 175 175 177 174 175 179 182 180 183 191 197 209 227 248 268 279 286 295 302 305 308 328 338 315 303 285 284 284 285 285 285 287 287
151 160 159 157 156 156 161 172 172 176 179 178 177 175 174 173 179 187 194 208 215 223 238 255 268 276 280 284 288 291 299 289 280 280 278 279 280 280 281 280 278 277 276
167 172 168 163 160 159 165 163 164 168 173 168 165 170 161 169 190 193 209 219 228 235 246 258 264 272 280 282 285 290 287 265 261 262 265 275 279 281 281 280 278 276 275
170 172 175 169 163 161 157 155 158 155 159 165 172 174 169 172 197 203 209 232 242 249 259 274 284 281 259 246 254 260 255 250 246 253 260 271 277 281 282 281 278 275 274
160 173 173 169 163 162 157 160 161 161 166 176 183 179 170 174 194 199 205 217 222 231 238 249 254 259 258 253 249 251 251 244 242 245 255 265 271 277 281 281 279 276 273
155 169 169 164 162 160 155 160 163 168 173 181 182 184 177 182 198 203 213 215 222 225 228 238 245 252 255 256 251 246 247 245 245 243 253 261 268 274 278 279 279 277 275
149 157 158 158 158 150 152 155 158 160 163 166 180 192 187 189 197 203 217 225 232 230 230 232 239 245 250 252 257 251 248 248 248 247 245 259 267 273 276 278 278 277 276
142 137 142 149 144 143 144 145 142 147 148 163 187 195 194 195 201 208 217 228 236 235 237 241 250 250 256 256 258 258 255 251 252 252 252 248 258 269 274 276 277 277 277
119 118 127 137 134 136 136 134 131 140 146 165 180 199 212 211 207 209 224 237 242 237 234 242 247 255 259 260 263 265 262 260 259 257 256 253 249 256 267 272 276 277 277
110 112 111 118 127 129 126 119 114 112 118 138 153 199 237 245 237 226 240 252 256 253 251 255 254 248 264 268 268 266 259 256 258 261 259 257 253 253 252 268 273 275 276
94 99 102 102 108 110 102 89 75 69 61 57 60 328 308 291 288 268 264 269 271 272 272 267 268 265 260 269 282 280 269 261 256 255 259 264 262 259 257 258 265 272 274
85 91 94 101 104 107 101 105 100 82 29 11 339 315 304 300 300 289 282 287 284 270 267 269 270 277 277 274 294 293 277 262 258 257 256 262 267 268 265 261 258 257 271
104 101 103 109 111 110 113 118 122 120 86 308 320 330 319 312 305 294 283 282 283 281 288 283 271 278 279 262 262 304 307 310 292 267 266 262 264 269 270 271 266 262 260
121 129 124 119 113 108 108 96 71 53 27 6 345 326 317 314 306 296 285 278 278 266 272 276 268 258 274 277 215 233 282 284 305 269 253 253 260 267 271 276 272 266 264
153 138 126 122 115 112 110 109 112 119 169 263 280 298 312 318 311 300 290 284 279 273 272 273 267 251 252 271 267 229 235 256 281 296 272 271 271 266 264 269 269 267 265
151 139 131 120 111 109 107 117 116 121 203 281 312 321 320 319 317 310 300 292 285 278 274 275 277 265 247 251 255 256 257 255 241 266 284 276 266 254 257 259 260 261 261
146 139 135 127 121 118 114 117 129 148 221 307 315 316 314 311 311 311 305 293 285 280 276 274 270 268 261 257 255 248 249 253 255 257 276 282 277 264 253 251 253 256 257